Location: Bothwell
(41.7170°N, 112.2589°W)
Time: 00:51:56
(UTC+00:00)

A-11 Canister half - All Passes

Search period start: 14 May 2026 00:00
Search period end: 24 May 2026 00:00
Orbit: 1515 x 1684 km, 47.2° (Epoch: 13 May)

Date Brightness Start Highest point End Pass type
(mag) Time Alt. Az. Time Alt. Az. Time Alt. Az.
14 May - 04:01:27 10° SSW 04:10:08 42° SE 04:18:38 10° ENE visible
14 May - 06:05:04 10° WSW 06:14:31 84° NNW 06:23:50 10° ENE visible
14 May - 08:10:53 10° W 08:20:06 62° N 08:29:17 10° E visible
14 May - 10:16:20 10° WNW 10:25:38 86° NNE 10:35:02 10° ESE visible
14 May - 12:21:37 10° WNW 12:29:56 39° SW 12:38:24 10° SSE daylight
15 May - 03:38:35 10° SSW 03:47:10 39° SE 03:55:32 10° ENE visible
15 May - 05:42:00 10° WSW 05:51:29 87° NNW 06:00:47 10° ENE visible
15 May - 07:47:47 10° W 07:57:01 62° N 08:06:11 10° E visible
15 May - 09:53:18 10° WNW 10:02:36 84° NNE 10:11:58 10° ESE visible
15 May - 11:58:30 10° WNW 12:06:58 42° SW 12:15:33 10° SSE daylight
16 May - 03:15:45 10° SSW 03:24:12 37° SE 03:32:26 10° ENE visible
16 May - 05:18:55 10° WSW 05:28:26 89° NNW 05:37:45 10° ENE visible
16 May - 07:24:40 10° W 07:33:56 63° N 07:43:06 10° ENE visible
16 May - 09:30:14 10° WNW 09:39:33 81° NNE 09:48:53 10° ESE visible
16 May - 11:35:26 10° WNW 11:44:00 44° SW 11:52:41 10° SSE visible
17 May - 02:52:54 10° SSW 03:01:14 35° SE 03:09:20 10° ENE daylight
17 May - 04:55:52 10° WSW 05:05:23 88° SSE 05:14:42 10° ENE visible
17 May - 07:01:33 10° W 07:10:51 63° N 07:20:01 10° ENE visible
17 May - 09:07:11 10° WNW 09:16:30 79° NNE 09:25:49 10° ESE visible
17 May - 11:12:21 10° WNW 11:21:01 47° SW 11:29:48 10° SSE visible
17 May - 13:21:58 10° WSW 13:24:07 11° WSW 13:26:17 10° SW daylight
18 May - 02:30:06 10° S 02:38:16 32° SE 02:46:13 10° ENE daylight
18 May - 04:32:48 10° WSW 04:42:21 85° SSE 04:51:40 10° ENE visible
18 May - 06:38:27 10° W 06:47:45 63° N 06:56:56 10° ENE visible
18 May - 08:44:07 10° WNW 08:53:27 77° NNE 09:02:45 10° ESE visible
18 May - 10:49:16 10° WNW 10:58:02 50° SW 11:06:54 10° SSE visible
18 May - 12:57:53 10° W 13:01:12 12° WSW 13:04:33 10° SW daylight
19 May - 02:07:20 10° S 02:15:18 30° SE 02:23:04 10° ENE daylight
19 May - 04:09:45 10° SW 04:19:18 82° SSE 04:28:38 10° ENE visible
19 May - 06:15:20 10° W 06:24:40 64° N 06:33:51 10° ENE visible
19 May - 08:21:04 10° WNW 08:30:23 75° NNE 08:39:40 10° ESE visible
19 May - 10:26:13 10° WNW 10:35:04 53° SW 10:43:59 10° SSE visible
19 May - 12:34:10 10° W 12:38:18 14° WSW 12:42:27 10° SSW daylight
20 May - 01:44:34 10° S 01:52:20 28° SE 01:59:55 10° ENE daylight
20 May - 03:46:42 10° SW 03:56:17 79° SSE 04:05:36 10° ENE visible
20 May - 05:52:12 10° W 06:01:35 65° N 06:10:47 10° ENE visible
20 May - 07:57:59 10° WNW 08:07:19 73° NNE 08:16:35 10° ESE visible
20 May - 10:03:08 10° WNW 10:12:04 56° SW 10:21:04 10° SE visible
20 May - 12:10:37 10° W 12:15:23 15° SW 12:20:10 10° SSW daylight
21 May - 01:21:50 10° S 01:29:23 26° SE 01:36:44 10° ENE daylight
21 May - 03:23:41 10° SW 03:33:15 75° SSE 03:42:33 10° ENE visible
21 May - 05:29:04 10° W 05:38:29 65° N 05:47:42 10° ENE visible
21 May - 07:34:55 10° WNW 07:44:15 71° NNE 07:53:30 10° E visible
21 May - 09:40:05 10° WNW 09:49:05 59° SW 09:58:07 10° SE visible
21 May - 11:47:10 10° W 11:52:27 17° SW 11:57:47 10° SSW daylight
22 May - 00:59:08 10° S 01:06:25 25° SE 01:13:32 10° E daylight
22 May - 03:00:39 10° SW 03:10:13 72° SSE 03:19:31 10° ENE visible
22 May - 05:05:58 10° W 05:15:24 66° N 05:24:38 10° ENE visible
22 May - 07:11:50 10° WNW 07:21:10 70° NNE 07:30:25 10° E visible
22 May - 09:17:01 10° WNW 09:26:06 62° SW 09:35:10 10° SE visible
22 May - 11:23:48 10° W 11:29:32 18° SW 11:35:19 10° SSW visible
23 May - 00:36:27 10° S 00:43:28 23° SE 00:50:19 10° E daylight
23 May - 02:37:37 10° SW 02:47:12 69° SE 02:56:29 10° ENE daylight
23 May - 04:42:49 10° W 04:52:20 68° NNW 05:01:35 10° ENE visible
23 May - 06:48:45 10° WNW 06:58:06 69° NNE 07:07:19 10° E visible
23 May - 08:53:57 10° WNW 09:03:05 65° SW 09:12:12 10° SE visible
23 May - 11:00:28 10° W 11:06:36 20° SW 11:12:47 10° S visible
